Flag for United Kingdom Weather past 2 weeks in Salisbury, England, United Kingdom

Now
48 °F

Sunny.


Feels Like: 46 °F
Forecast: 43 / 64 °F
Wind: 5 mph from Northwest

Location: Boscombe Down

Current Time: Aug 20, 2014 at 8:18:04 AM

Latest Report: Aug 20, 2014 at 7:50 AM


Visibility: 10 mi

Pressure: 30.04 "Hg

Humidity: 87%

Dew point: 45 °F

Location of SalisburyLocation

Historic Weather in Salisbury — Graph

°F

Salisbury temperature yesterday

Maximum temperature yesterday: 63 °F (at 1:50 PM)
Minimum temperature yesterday: 46 °F (at 12:50 AM)
Average temperature yesterday: 55 °F

Past Weeks' High & Low Weather Summary

 TemperatureHumidityPressure
High75 °F (Aug 6, 3:58 PM)100% (Aug 5, 6:10 AM)30.18 "Hg (Aug 5, 6:10 AM)
Low43 °F (Aug 20, 3:50 AM)44% (Aug 7, 2:50 PM)29.30 "Hg (Aug 10, 10:50 AM)
Average60 °F78%29.85 "Hg
* Reported Aug 5 6:10 AM — Aug 20 6:50 AM, Salisbury, Weather by CustomWeather, © 2014

Note: Actual official high and low records may vary slightly from our data, if they occured in-between our weather recording intervals... More about our weather records

Advertising

Salisbury weather history for previous 24 hours

 ConditionsComfort  
Time TempWeatherWind HumidityBarometerVisibility
6:50 AM
Aug 20
45 °FClear.6 mph93%30.04 "Hg10 mi
5:50 AM43 °FQuite cool.7 mph93%30.04 "HgN/A
4:50 AM43 °FQuite cool.6 mph93%30.04 "HgN/A
3:50 AM43 °FQuite cool.7 mph93%30.04 "HgN/A
2:50 AM45 °FQuite cool.6 mph93%30.04 "HgN/A
1:50 AM46 °FCool.7 mph87%30.04 "HgN/A
12:50 AM46 °FCool.7 mph93%30.04 "HgN/A
11:50 PM
Aug 19
48 °FPassing clouds.7 mph87%30.04 "HgN/A
10:50 PM52 °FClear.6 mph77%30.04 "Hg10 mi
9:50 PM52 °FPassing clouds.7 mph77%30.01 "HgN/A
8:50 PM55 °FPartly sunny.7 mph67%30.01 "HgN/A
7:50 PM57 °FScattered clouds.8 mph67%29.98 "HgN/A
6:50 PM57 °FScattered clouds.12 mph59%29.98 "HgN/A
5:50 PM61 °FPassing clouds.13 mph52%29.98 "HgN/A
4:50 PM59 °FScattered showers. Scattered clouds.16 mph63%29.98 "HgN/A
3:50 PM61 °FScattered showers. Broken clouds.18 mph55%29.95 "HgN/A
2:50 PM63 °FScattered clouds.12 mph52%29.95 "HgN/A
1:50 PM63 °FScattered clouds.12 mph56%29.95 "HgN/A
12:50 PM59 °FScattered clouds.13 mph51%29.95 "HgN/A
11:50 AM59 °FScattered clouds.15 mph51%29.95 "HgN/A
10:50 AM61 °FPassing clouds.14 mph48%29.95 "HgN/A
9:50 AM59 °FPassing clouds.14 mph59%29.95 "HgN/A
8:50 AM55 °FPassing clouds.14 mph67%29.92 "HgN/A
Weather by CustomWeather, © 2014

See weather overviewHow to use our weather pages